• In Belarus
  • List of Countries
  • For 7 days
  • Water Temperature
  • Satellite Maps
  • Weather Map
  • Weather Widgets
  • user-avatar
    Login

    Hourly Weather Kuweit

    Today, 18 July, Thursday

    Time Temperature Precipitation Wind Pressure Humidity
    00:00 +39°C° 0 mm 6 mps 747 mmHg 19%
    01:00 +38°C° 0 mm 7 mps 747 mmHg 20%
    02:00 +36°C° 0 mm 7 mps 746 mmHg 21%
    03:00 +36°C° 0 mm 7 mps 746 mmHg 22%
    04:00 +35°C° 0 mm 7 mps 746 mmHg 22%
    05:00 +35°C° 0 mm 7 mps 747 mmHg 22%
    06:00 +35°C° 0 mm 6 mps 747 mmHg 22%
    07:00 +38°C° 0 mm 7 mps 747 mmHg 19%
    08:00 +40°C° 0 mm 7 mps 747 mmHg 17%
    09:00 +44°C° 0 mm 7 mps 747 mmHg 14%
    10:00 +45°C° 0 mm 8 mps 747 mmHg 13%
    11:00 +48°C° 0 mm 9 mps 747 mmHg 12%
    12:00 +50°C° 0 mm 10 mps 746 mmHg 11%
    13:00 +52°C° 0 mm 10 mps 746 mmHg 9%
    14:00 +53°C° 0 mm 10 mps 745 mmHg 8%
    15:00 +54°C° 0 mm 11 mps 744 mmHg 7%
    16:00 +53°C° 0 mm 11 mps 744 mmHg 8%
    17:00 +52°C° 0 mm 11 mps 744 mmHg 8%
    18:00 +52°C° 0 mm 11 mps 744 mmHg 9%
    19:00 +49°C° 0 mm 10 mps 744 mmHg 10%
    20:00 +48°C° 0 mm 10 mps 745 mmHg 11%
    21:00 +47°C° 0 mm 9 mps 745 mmHg 12%
    22:00 +45°C° 0 mm 9 mps 745 mmHg 12%
    23:00 +44°C° 0 mm 10 mps 745 mmHg 13%

    Tomorrow, 19 July, Friday

    Time Temperature Precipitation Wind Pressure Humidity
    00:00 +43°C° 0 mm 10 mps 745 mmHg 14%
    01:00 +42°C° 0 mm 10 mps 745 mmHg 15%
    02:00 +42°C° 0 mm 9 mps 745 mmHg 16%
    03:00 +40°C° 0 mm 9 mps 745 mmHg 17%
    04:00 +40°C° 0 mm 9 mps 745 mmHg 17%
    05:00 +40°C° 0 mm 9 mps 746 mmHg 17%
    06:00 +39°C° 0 mm 9 mps 746 mmHg 18%
    07:00 +42°C° 0 mm 11 mps 746 mmHg 16%
    08:00 +44°C° 0 mm 12 mps 746 mmHg 14%
    09:00 +48°C° 0 mm 13 mps 746 mmHg 12%
    10:00 +50°C° 0 mm 13 mps 746 mmHg 11%
    11:00 +51°C° 0 mm 13 mps 746 mmHg 10%
    12:00 +52°C° 0 mm 13 mps 746 mmHg 9%
    13:00 +53°C° 0 mm 13 mps 745 mmHg 8%
    14:00 +53°C° 0 mm 12 mps 745 mmHg 8%
    15:00 +53°C° 0 mm 12 mps 744 mmHg 8%
    16:00 +53°C° 0 mm 12 mps 744 mmHg 8%
    17:00 +52°C° 0 mm 11 mps 744 mmHg 8%
    18:00 +51°C° 0 mm 11 mps 744 mmHg 9%
    19:00 +49°C° 0 mm 10 mps 745 mmHg 10%
    20:00 +47°C° 0 mm 10 mps 745 mmHg 11%
    21:00 +45°C° 0 mm 10 mps 746 mmHg 12%
    22:00 +44°C° 0 mm 9 mps 746 mmHg 14%
    23:00 +43°C° 0 mm 9 mps 746 mmHg 15%

    Day after tomorrow, 20 July, Saturday

    Time Temperature Precipitation Wind Pressure Humidity
    00:00 +41°C° 0 mm 8 mps 746 mmHg 16%
    01:00 +40°C° 0 mm 8 mps 746 mmHg 17%
    02:00 +39°C° 0 mm 8 mps 746 mmHg 18%
    03:00 +39°C° 0 mm 9 mps 746 mmHg 19%
    04:00 +38°C° 0 mm 8 mps 746 mmHg 21%
    05:00 +38°C° 0 mm 7 mps 747 mmHg 22%
    06:00 +36°C° 0 mm 7 mps 747 mmHg 23%
    07:00 +39°C° 0 mm 7 mps 747 mmHg 21%
    08:00 +41°C° 0 mm 8 mps 748 mmHg 19%
    09:00 +44°C° 0 mm 9 mps 748 mmHg 17%
    10:00 +45°C° 0 mm 8 mps 748 mmHg 15%
    11:00 +48°C° 0 mm 8 mps 748 mmHg 14%
    12:00 +50°C° 0 mm 7 mps 747 mmHg 12%
    13:00 +51°C° 0 mm 7 mps 747 mmHg 11%
    14:00 +52°C° 0 mm 6 mps 746 mmHg 10%
    15:00 +52°C° 0 mm 6 mps 746 mmHg 9%
    16:00 +52°C° 0 mm 6 mps 746 mmHg 10%
    17:00 +51°C° 0 mm 6 mps 746 mmHg 10%
    18:00 +51°C° 0 mm 7 mps 745 mmHg 10%
    19:00 +49°C° 0 mm 6 mps 746 mmHg 12%
    20:00 +47°C° 0 mm 6 mps 746 mmHg 13%
    21:00 +45°C° 0 mm 6 mps 746 mmHg 15%
    22:00 +45°C° 0 mm 6 mps 746 mmHg 16%
    23:00 +44°C° 0 mm 7 mps 747 mmHg 16%

    21 July, Sunday

    Time Temperature Precipitation Wind Pressure Humidity
    00:00 +43°C° 0 mm 7 mps 747 mmHg 17%
    01:00 +41°C° 0 mm 7 mps 747 mmHg 18%
    02:00 +40°C° 0 mm 7 mps 746 mmHg 19%
    03:00 +40°C° 0 mm 7 mps 746 mmHg 19%
    04:00 +40°C° 0 mm 7 mps 746 mmHg 20%
    05:00 +39°C° 0 mm 7 mps 746 mmHg 20%
    06:00 +39°C° 0 mm 7 mps 747 mmHg 21%
    07:00 +41°C° 0 mm 7 mps 747 mmHg 19%
    08:00 +42°C° 0 mm 6 mps 747 mmHg 17%
    09:00 +45°C° 0 mm 6 mps 747 mmHg 16%
    10:00 +47°C° 0 mm 5 mps 747 mmHg 14%
    11:00 +49°C° 0 mm 5 mps 747 mmHg 12%
    12:00 +51°C° 0 mm 4 mps 746 mmHg 10%
    13:00 +51°C° 0 mm 3 mps 746 mmHg 9%
    14:00 +50°C° 0 mm 2 mps 745 mmHg 9%
    15:00 +51°C° 0 mm 2 mps 744 mmHg 8%
    16:00 +50°C° 0 mm 2 mps 744 mmHg 8%
    17:00 +50°C° 0 mm 2 mps 744 mmHg 8%
    18:00 +49°C° 0 mm 2 mps 744 mmHg 8%
    19:00 +48°C° 0 mm 3 mps 744 mmHg 8%
    20:00 +49°C° 0 mm 4 mps 744 mmHg 8%
    21:00 +48°C° 0 mm 4 mps 745 mmHg 8%
    22:00 +47°C° 0 mm 5 mps 745 mmHg 9%
    23:00 +47°C° 0 mm 5 mps 745 mmHg 10%

    22 July, Monday

    Time Temperature Precipitation Wind Pressure Humidity
    00:00 +46°C° 0 mm 5 mps 745 mmHg 11%
    01:00 +44°C° 0 mm 4 mps 744 mmHg 13%
    02:00 +43°C° 0 mm 4 mps 744 mmHg 14%
    03:00 +41°C° 0 mm 4 mps 744 mmHg 16%
    04:00 +41°C° 0 mm 4 mps 744 mmHg 17%
    05:00 +40°C° 0 mm 4 mps 744 mmHg 18%
    06:00 +38°C° 0 mm 4 mps 744 mmHg 18%
    07:00 +40°C° 0 mm 3 mps 745 mmHg 18%
    08:00 +43°C° 0 mm 3 mps 745 mmHg 17%
    09:00 +45°C° 0 mm 3 mps 745 mmHg 16%
    10:00 +46°C° 0 mm 3 mps 745 mmHg 17%
    11:00 +46°C° 0 mm 3 mps 745 mmHg 19%
    12:00 +48°C° 0 mm 4 mps 745 mmHg 20%
    13:00 +47°C° 0 mm 3 mps 744 mmHg 18%
    14:00 +48°C° 0 mm 3 mps 744 mmHg 17%
    15:00 +50°C° 0 mm 3 mps 743 mmHg 15%
    16:00 +48°C° 0 mm 2 mps 743 mmHg 15%
    17:00 +47°C° 0 mm 1 mps 743 mmHg 15%
    18:00 +47°C° 0 mm 1 mps 743 mmHg 14%
    19:00 +47°C° 0 mm 2 mps 743 mmHg 16%
    20:00 +46°C° 0 mm 3 mps 744 mmHg 18%
    21:00 +44°C° 0 mm 4 mps 744 mmHg 20%
    22:00 +43°C° 0 mm 4 mps 744 mmHg 25%
    23:00 +41°C° 0 mm 4 mps 744 mmHg 29%

    23 July, Tuesday

    Time Temperature Precipitation Wind Pressure Humidity
    00:00 +40°C° 0 mm 4 mps 743 mmHg 34%
    01:00 +40°C° 0 mm 4 mps 743 mmHg 32%
    02:00 +39°C° 0 mm 3 mps 743 mmHg 30%
    03:00 +39°C° 0 mm 3 mps 743 mmHg 27%
    04:00 +39°C° 0 mm 3 mps 743 mmHg 25%
    05:00 +39°C° 0 mm 3 mps 743 mmHg 22%
    06:00 +39°C° 0 mm 3 mps 744 mmHg 20%
    07:00 +40°C° 0 mm 3 mps 744 mmHg 18%
    08:00 +42°C° 0 mm 2 mps 744 mmHg 16%
    09:00 +45°C° 0 mm 2 mps 744 mmHg 14%
    10:00 +46°C° 0 mm 3 mps 744 mmHg 14%
    11:00 +47°C° 0 mm 3 mps 744 mmHg 14%
    12:00 +48°C° 0 mm 4 mps 743 mmHg 15%
    13:00 +49°C° 0 mm 4 mps 743 mmHg 16%
    14:00 +49°C° 0 mm 4 mps 743 mmHg 17%
    15:00 +49°C° 0 mm 5 mps 742 mmHg 17%
    16:00 +48°C° 0 mm 4 mps 742 mmHg 19%
    17:00 +48°C° 0 mm 4 mps 742 mmHg 20%
    18:00 +47°C° 0 mm 4 mps 742 mmHg 21%
    19:00 +45°C° 0 mm 3 mps 742 mmHg 22%
    20:00 +43°C° 0 mm 2 mps 743 mmHg 23%
    21:00 +42°C° 0 mm 2 mps 743 mmHg 25%
    22:00 +42°C° 0 mm 3 mps 743 mmHg 27%
    23:00 +41°C° 0 mm 4 mps 743 mmHg 30%
    Show more